Weather History for Livingston, MT

Change the Weather History Date:

Wednesday, February 20, 2013

  Actual Average Record
Temperature  
Mean Temperature 22 °F 30 °F  
Max Temperature 34 °F 41 °F 70 °F (1995)
Min Temperature 10 °F 19 °F -10 °F (1949)
Degree Days  
Heating Degree Days 43 35  
Month to date heating degree days 731  
Since 1 July heating degree days 5072  
Moisture  
Dew Point 21 °F    
Average Humidity 83    
Maximum Humidity 93    
Minimum Humidity 54    
Precipitation  
Precipitation 0.06 in 0.02 in 0.20 in (2011)
Month to date precipitation 0.34  
Year to date precipitation 0.83  
Sea Level Pressure  
Sea Level Pressure 29.82 in    
Wind  
Wind Speed 4 mph (ENE)    
Max Wind Speed 10 mph    
Max Gust Speed -    
Visibility 3 miles    
Events Fog , Snow    
T = Trace of Precipitation, MM = Missing Value Source: NWS Daily Summary

Daily Weather History Graph

Daily Weather History Graph

Search for Another Location

Airport:

Trip Planner

Search our weather history database for the weather conditions in past years. The results will help you decide how hot, cold, wet, or windy it might be!

Date:

Astronomy

Feb. 20, 2013 Rise Set
Actual Time 7:15 AM MST 5:56 PM MST
Civil Twilight 6:45 AM MST 6:26 PM MST
Nautical Twilight 6:10 AM MST 7:01 PM MST
Astronomical Twilight 5:36 AM MST 7:35 PM MST
Moon 1:11 PM MST (2/20) 3:47 AM MST (2/20)
Length of Visible Light 11h 41m
Length of Day
10h 41m
Waxing Gibbous, 76% of the Moon is Illuminated
Feb 20
Waxing Gibbous
Feb 25
Full
Mar 4
Last Quarter
Mar 11
New
Mar 19
First Quarter

Hourly Weather History & Observations

Time (MST) Temp. Windchill Dew Point Humidity Pressure Visibility Wind Dir Wind Speed Gust Speed Precip Events Conditions
12:53 AM 15.1 °F 6.4 °F 10.9 °F 84% 29.86 in - NW 5.8 mph - N/A   Clear
1:53 AM 15.1 °F 9.4 °F 10.9 °F 84% 29.84 in - South 3.5 mph - N/A   Clear
2:53 AM 16.0 °F 7.4 °F 10.0 °F 77% 29.83 in - North 5.8 mph - N/A   Clear
3:53 AM 15.1 °F - 10.0 °F 80% 29.84 in - Calm Calm - N/A   Clear
4:53 AM 10.0 °F - 6.1 °F 84% 29.88 in - Calm Calm - N/A   Clear
5:53 AM 10.9 °F - 7.0 °F 84% 29.89 in - Calm Calm - N/A   Clear
6:53 AM 12.9 °F - 9.0 °F 84% 29.90 in - Calm Calm - N/A   Clear
7:53 AM 16.0 °F - 10.9 °F 81% 29.90 in - Calm Calm - N/A   Overcast
8:53 AM 19.0 °F 13.9 °F 12.9 °F 77% 29.91 in - West 3.5 mph - N/A   Overcast
9:53 AM 21.0 °F - 15.1 °F 78% 29.91 in - Calm Calm - N/A   Overcast
10:53 AM 27.0 °F 23.0 °F 17.1 °F 66% 29.90 in 10.0 mi Variable 3.5 mph - N/A   Mostly Cloudy
11:53 AM 30.0 °F - 18.0 °F 61% 29.87 in 10.0 mi Calm Calm - N/A   Overcast
12:53 PM 32.0 °F 24.8 °F 18.0 °F 56% 29.86 in 10.0 mi East 8.1 mph - N/A   Overcast
1:53 PM 34.0 °F 27.2 °F 19.0 °F 54% 29.84 in 10.0 mi NNW 8.1 mph - N/A   Overcast
2:53 PM 30.9 °F 22.8 °F 24.1 °F 76% 29.85 in 5.0 mi NW 9.2 mph - 0.00 in   Haze
3:41 PM 30.2 °F 25.4 °F 24.8 °F 80% 29.72 in 2.0 mi North 4.6 mph - 0.00 in Snow Light Snow
3:50 PM 30.2 °F 26.7 °F 24.8 °F 80% 29.73 in 1.8 mi North 3.5 mph - 0.00 in Snow Light Snow
3:53 PM 30.0 °F 26.5 °F 25.0 °F 82% 29.86 in 1.5 mi NNW 3.5 mph - 0.00 in Snow Light Snow
4:17 PM 28.4 °F 23.3 °F 26.6 °F 93% 29.73 in 2.0 mi NNW 4.6 mph - 0.00 in Snow Light Snow
4:25 PM 28.4 °F 24.6 °F 26.6 °F 93% 29.73 in 1.2 mi North 3.5 mph - 0.00 in Snow Light Snow
4:29 PM 28.4 °F 24.6 °F 26.6 °F 93% 29.73 in 1.0 mi NNW 3.5 mph - 0.01 in Snow Light Snow
4:39 PM 28.4 °F 24.6 °F 26.6 °F 93% 29.73 in 0.5 mi SE 3.5 mph - 0.01 in Fog , Snow Light Snow
4:47 PM 28.4 °F - 24.8 °F 86% 29.74 in 1.2 mi Calm Calm - 0.01 in Snow Light Snow
4:53 PM 28.9 °F - 25.0 °F 85% 29.89 in 1.2 mi Calm Calm - 0.01 in Snow Light Snow
5:02 PM 28.4 °F - 24.8 °F 86% 29.74 in 0.8 mi Calm Calm - 0.00 in Snow Light Snow
5:19 PM 28.4 °F - 24.8 °F 86% 29.74 in 1.0 mi Calm Calm - 0.01 in Snow Light Snow
5:29 PM 28.4 °F - 24.8 °F 86% 29.75 in 1.5 mi Calm Calm - 0.01 in Snow Light Snow
5:50 PM 28.4 °F - 24.8 °F 86% 29.75 in 0.8 mi Calm Calm - 0.01 in Snow Light Snow
5:53 PM 28.0 °F - 25.0 °F 88% 29.91 in 0.8 mi Calm Calm - 0.01 in Snow Light Snow
6:12 PM 28.4 °F - 24.8 °F 86% 29.75 in 1.2 mi Calm Calm - 0.01 in Snow Light Snow
6:23 PM 28.4 °F - 24.8 °F 86% 29.76 in 2.5 mi Calm Calm - 0.01 in Snow Light Snow
6:53 PM 28.0 °F - 25.0 °F 88% 29.91 in 1.8 mi Calm Calm - 0.01 in Snow Light Snow
7:10 PM 28.4 °F - 24.8 °F 86% 29.77 in 2.0 mi Calm Calm - 0.01 in Snow Light Snow
7:23 PM 28.4 °F 21.2 °F 24.8 °F 86% 29.77 in 1.8 mi East 6.9 mph - 0.01 in Snow Light Snow
7:27 PM 26.6 °F 17.5 °F 24.8 °F 93% 29.77 in 1.8 mi East 9.2 mph - 0.01 in Snow Light Snow
7:48 PM 26.6 °F 16.8 °F 23.0 °F 86% 29.77 in 2.5 mi East 10.4 mph - 0.01 in Snow Light Snow
7:53 PM 26.1 °F 16.2 °F 23.0 °F 88% 29.93 in 3.0 mi East 10.4 mph - 0.01 in Snow Light Snow
8:40 PM 24.8 °F 16.1 °F 21.2 °F 86% 29.78 in 3.0 mi East 8.1 mph - 0.00 in Snow Light Snow
8:53 PM 25.0 °F 15.5 °F 21.9 °F 88% 29.93 in 2.0 mi East 9.2 mph - 0.00 in Snow Light Snow
9:01 PM 24.8 °F 15.3 °F 21.2 °F 86% 29.78 in 1.8 mi East 9.2 mph - 0.00 in Snow Light Snow
9:07 PM 24.8 °F 15.3 °F 21.2 °F 86% 29.78 in 3.0 mi East 9.2 mph - 0.00 in Snow Light Snow
9:53 PM 25.0 °F 16.3 °F 21.0 °F 85% 29.94 in 2.0 mi East 8.1 mph - 0.01 in Snow Light Snow
10:50 PM 24.8 °F 16.1 °F 21.2 °F 86% 29.81 in 2.0 mi ESE 8.1 mph - 0.00 in Snow Light Snow
10:53 PM 24.1 °F 16.0 °F 21.9 °F 91% 29.93 in 2.0 mi East 6.9 mph - 0.00 in Snow Light Snow
11:03 PM 24.8 °F 16.1 °F 21.2 °F 86% 29.81 in 5.0 mi East 8.1 mph - 0.00 in Snow Light Snow
11:24 PM 24.8 °F 16.9 °F 21.2 °F 86% 29.81 in 2.0 mi East 6.9 mph - 0.00 in Snow Light Snow
11:35 PM 24.8 °F 17.9 °F 21.2 °F 86% 29.81 in 1.5 mi East 5.8 mph - 0.00 in Snow Light Snow
11:53 PM 24.1 °F 18.2 °F 21.9 °F 91% 29.93 in 1.2 mi East 4.6 mph - 0.01 in Snow Light Snow